METEOSAT-12 (MTG-I1)

Last updated on Sun Oct 26 2025 00:02:30 GMT+0000 (Coordinated Universal Time)

1 54743U 22170C 25298.30947705 .00000007 00000+0 00000+0 0 9991 2 54743 0.7101 31.4664 0001344 135.5779 338.0525 1.00275867 10628
UTC large
Height (km)
Speed (km/s)
/
Latitude / Longitude
Inclination (degrees)
Orbital Period (minutes)
Azimuth
Elevation
Range (km)
Doppler Factor

Next 0 passes for location: London (51.5072 / 0.1276)

Sorry there are no passes over London.